Weather History for KJAN - October, 2013

Change the Weather History Date:

Friday, October 11, 2013

  Actual Average Record
Temperature  
Mean Temperature 73 °F 67 °F  
Max Temperature 84 °F 79 °F 93 °F (1928)
Min Temperature 61 °F 55 °F 35 °F (1964)
Degree Days  
Heating Degree Days 0 2  
Month to date heating degree days 4 16  
Since 1 July heating degree days 4 23  
Cooling Degree Days 8 4  
Month to date cooling degree days 83 54  
Year to date cooling degree days 2270 2180  
Growing Degree Days 22 (Base 50)    
Moisture  
Dew Point 63 °F    
Average Humidity 76    
Maximum Humidity 100    
Minimum Humidity 51    
Precipitation  
Precipitation 0.00 in 0.12 in 1.35 in (1897)
Month to date precipitation 0.28 1.31  
Year to date precipitation 51.31 41.62  
Sea Level Pressure  
Sea Level Pressure 30.02 in    
Wind  
Wind Speed 3 mph (SSW)    
Max Wind Speed 12 mph    
Max Gust Speed -    
Visibility 6 miles    
Events Fog    
T = Trace of Precipitation, MM = Missing Value Source: NWS Daily Summary

Daily Weather History Graph

Daily Weather History Graph

Search for Another Location

Airport or City:

Trip Planner

Search our weather history database for the weather conditions in past years. The results will help you decide how hot, cold, wet, or windy it might be!

Date:

Astronomy

Oct. 11, 2013 Rise Set
Actual Time 7:01 AM CDT 6:32 PM CDT
Civil Twilight 6:36 AM CDT 6:56 PM CDT
Nautical Twilight 6:08 AM CDT 7:25 PM CDT
Astronomical Twilight 5:39 AM CDT 7:53 PM CDT
Moon 1:32 PM CDT (10/11) No Moon Set
Length of Visible Light 12h 20m
Length of Day
11h 30m
Waxing Crescent, 47% of the Moon is Illuminated
Oct 11
Waxing Crescent
Oct 11
First Quarter
Oct 18
Full
Oct 26
Last Quarter
Nov 3
New

Hourly Weather History & Observations

Time (CDT) Temp. Heat Index Dew Point Humidity Pressure Visibility Wind Dir Wind Speed Gust Speed Precip Events Conditions
12:54 AM 63.0 °F - 62.1 °F 97% 30.00 in 7.0 mi Calm Calm - N/A   Clear
1:54 AM 63.0 °F - 61.0 °F 93% 30.01 in 6.0 mi Variable 6.9 mph - N/A   Clear
2:54 AM 62.1 °F - 60.1 °F 93% 30.00 in 6.0 mi Calm Calm - N/A   Clear
3:18 AM 62.6 °F - 60.8 °F 94% 30.01 in 2.0 mi Calm Calm - N/A   Clear
3:28 AM 62.6 °F - 60.8 °F 94% 30.01 in 5.0 mi Calm Calm - N/A   Clear
3:54 AM 62.1 °F - 60.1 °F 93% 30.00 in 4.0 mi Calm Calm - N/A   Clear
4:21 AM 60.8 °F - 60.8 °F 100% 30.01 in 1.5 mi Calm Calm - N/A   Partly Cloudy
4:23 AM 60.8 °F - 60.8 °F 100% 30.01 in 0.8 mi Calm Calm - N/A   Mist
4:31 AM 62.6 °F - 60.8 °F 94% 30.01 in 0.8 mi Calm Calm - N/A   Mostly Cloudy
4:39 AM 60.8 °F - 60.8 °F 100% 30.01 in 1.5 mi Calm Calm - N/A   Mostly Cloudy
4:54 AM 63.0 °F - 62.1 °F 97% 30.01 in 0.8 mi Calm Calm - N/A   Overcast
5:15 AM 64.4 °F - 62.6 °F 94% 30.02 in 0.2 mi Calm Calm - N/A Fog Fog
5:42 AM 64.4 °F - 62.6 °F 94% 30.03 in 0.5 mi Calm Calm - N/A Fog Fog
5:54 AM 64.0 °F - 63.0 °F 96% 30.02 in 0.2 mi Calm Calm - N/A Fog Fog
6:54 AM 64.0 °F - 63.0 °F 96% 30.04 in 0.2 mi Calm Calm - N/A Fog Fog
7:54 AM 64.9 °F - 64.0 °F 97% 30.05 in 0.2 mi Calm Calm - N/A Fog Fog
8:20 AM 64.4 °F - 64.4 °F 100% 30.07 in 0.2 mi South 3.5 mph - N/A Fog Fog
8:54 AM 66.9 °F - 66.0 °F 97% 30.06 in 0.2 mi SSE 4.6 mph - N/A   Mist
9:22 AM 68.0 °F - 66.2 °F 94% 30.07 in 1.5 mi SSE 3.5 mph - N/A   Overcast
9:54 AM 69.1 °F - 66.9 °F 93% 30.06 in 1.5 mi SSW 5.8 mph - N/A   Mostly Cloudy
10:27 AM 71.6 °F - 68.0 °F 88% 30.07 in 10.0 mi South 3.5 mph - N/A   Scattered Clouds
10:54 AM 73.9 °F - 68.0 °F 82% 30.06 in 10.0 mi South 5.8 mph - N/A   Partly Cloudy
11:54 AM 77.0 °F - 66.9 °F 71% 30.06 in 10.0 mi SSW 3.5 mph - N/A   Mostly Cloudy
12:54 PM 80.1 °F 82.1 °F 66.0 °F 62% 30.04 in 10.0 mi SW 5.8 mph - N/A   Mostly Cloudy
1:32 PM 80.6 °F 82.3 °F 64.4 °F 58% 30.03 in 10.0 mi SW 9.2 mph - N/A   Mostly Cloudy
1:54 PM 82.0 °F 83.4 °F 64.0 °F 54% 30.01 in 10.0 mi SW 6.9 mph - N/A   Mostly Cloudy
2:54 PM 81.0 °F 82.5 °F 64.0 °F 56% 29.99 in 10.0 mi SW 6.9 mph - N/A   Mostly Cloudy
3:54 PM 82.0 °F 83.1 °F 63.0 °F 52% 29.98 in 10.0 mi Calm Calm - N/A   Mostly Cloudy
4:54 PM 82.0 °F 83.1 °F 63.0 °F 52% 29.97 in 10.0 mi WSW 3.5 mph - N/A   Scattered Clouds
5:54 PM 81.0 °F 82.2 °F 63.0 °F 54% 29.97 in 10.0 mi Calm Calm - N/A   Partly Cloudy
6:54 PM 71.1 °F - 66.0 °F 84% 29.98 in 10.0 mi Calm Calm - N/A   Partly Cloudy
7:54 PM 70.0 °F - 64.9 °F 84% 29.99 in 10.0 mi Calm Calm - N/A   Partly Cloudy
8:54 PM 66.9 °F - 64.0 °F 90% 29.99 in 10.0 mi Calm Calm - N/A   Partly Cloudy
9:54 PM 66.9 °F - 63.0 °F 87% 29.99 in 10.0 mi Calm Calm - N/A   Partly Cloudy
10:54 PM 66.9 °F - 63.0 °F 87% 29.99 in 10.0 mi SSE 3.5 mph - N/A   Clear
11:54 PM 66.9 °F - 63.0 °F 87% 30.00 in 10.0 mi SE 5.8 mph - N/A   Partly Cloudy